Temperature
19 19 18 18 18 18 17 17 17 17 16 16 16 16 16 16 16 16 15 15 15 15 15 15 15 15 15 14 14 14 14 14 14 14 14 14 14 14 14 14 14 14 14
18 18 18 18 18 17 17 17 17 16 16 16 16 16 16 16 16 15 15 15 15 15 15 15 15 15 15 14 14 14 14 14 14 14 14 14 14 14 14 14 14 14 14
19 18 18 18 18 17 17 17 17 16 16 16 16 16 16 16 15 15 15 15 15 15 15 15 15 15 14 14 14 14 14 14 14 14 14 14 13 13 13 13 13 13 13
19 18 18 18 18 17 17 17 16 16 16 16 16 16 15 15 15 15 15 15 15 14 14 14 14 14 14 14 14 14 14 14 14 14 13 14 13 13 13 13 13 13 13
19 18 18 18 18 17 17 17 16 16 16 16 16 15 15 15 15 15 15 15 14 14 14 14 14 14 14 14 14 14 14 14 13 13 13 13 13 13 13 13 13 13 13
18 18 18 18 17 17 17 17 16 16 16 16 15 15 15 15 15 15 14 14 14 14 14 14 14 14 14 14 14 14 14 13 13 13 13 13 13 13 13 13 13 13 13
18 18 18 17 17 17 17 16 16 16 16 16 15 15 15 15 15 15 14 14 14 14 14 14 14 14 14 14 14 14 13 13 13 13 13 13 13 13 13 13 13 12 13
18 18 18 18 17 17 17 16 16 16 16 15 15 15 15 15 15 14 14 14 14 14 14 14 14 13 13 13 13 13 13 13 13 13 13 13 13 13 13 13 13 12 12
18 18 18 17 17 17 17 16 16 16 15 15 15 15 15 15 14 14 14 14 14 14 14 13 13 13 13 13 13 13 13 13 13 13 13 13 13 12 12 12 12 12 12
18 18 18 18 17 17 16 16 16 16 15 15 15 15 15 14 14 14 14 14 14 13 13 13 13 13 13 13 13 13 13 13 13 12 12 13 12 12 12 12 12 12 12
17 17 17 17 17 17 16 16 16 15 15 15 15 15 14 14 14 14 14 13 13 13 13 13 13 13 13 13 13 13 13 12 12 12 12 12 12 12 12 12 12 12 12
17 17 17 17 16 16 16 16 15 15 15 15 15 14 14 14 14 14 13 13 13 13 13 13 13 13 13 12 12 12 12 12 12 12 12 12 12 12 12 12 12 12 12
17 17 16 16 16 16 16 15 15 15 15 15 14 14 14 14 14 13 13 13 13 13 13 13 12 12 12 12 12 12 12 12 12 12 12 12 11 11 11 11 11 11 11
17 16 16 16 16 15 15 15 15 15 14 14 14 14 14 13 13 13 13 13 13 13 12 12 12 12 12 12 12 12 12 12 12 11 11 11 11 11 11 11 11 11 11
16 16 16 15 15 15 15 15 14 14 14 14 13 13 13 13 13 13 13 13 12 12 12 12 12 12 12 12 12 12 11 11 11 11 11 11 11 11 11 11 11 11 11
16 16 15 15 15 15 14 14 14 14 13 13 13 13 13 13 13 12 12 12 12 12 12 12 12 12 12 12 11 11 11 11 11 11 11 11 11 11 11 10 10 10 10
15 15 15 15 15 14 14 14 14 13 13 13 13 13 12 12 12 12 12 12 12 12 12 12 12 11 11 11 11 11 11 11 11 11 10 10 10 10 10 10 10 10 10
15 15 15 14 14 14 14 13 13 13 13 13 13 12 12 12 12 12 12 12 12 12 12 11 11 11 11 11 11 11 10 10 10 10 10 10 10 10 10 10 10 10 10
15 14 14 14 14 14 14 13 13 13 13 12 12 12 12 12 12 11 11 11 11 11 11 11 11 11 11 11 11 10 10 10 10 10 10 10 10 10 9 9 9 9 9
14 14 14 14 13 13 13 13 13 12 12 12 12 12 12 11 11 11 11 11 11 11 11 11 11 10 10 10 10 10 10 10 10 10 10 9 9 9 9 9 9 9 9
14 14 13 13 13 13 13 12 12 12 12 12 12 11 11 11 11 11 11 11 10 10 10 10 10 10 10 10 10 10 10 9 10 9 9 9 9 9 9 9 9 9 9
13 13 13 13 12 12 12 12 12 12 11 11 11 11 11 11 11 11 10 10 10 10 10 10 10 9 9 9 9 9 9 9 9 9 9 9 9 9 9 8 8 8 8
13 13 12 12 12 12 12 11 11 11 11 11 11 11 11 10 10 10 10 10 9 9 9 9 9 9 9 9 9 9 8 8 8 8 8 8 8 8 8 8 8 8 8
12 12 12 12 12 12 11 11 11 11 11 11 10 10 10 10 10 10 9 9 9 9 8 8 8 8 8 8 8 8 8 8 8 8 8 8 8 8 8 7 7 7 7
12 12 12 11 11 11 11 11 11 11 10 10 10 10 9 9 9 9 9 9 8 8 8 8 8 8 8 8 8 7 7 7 7 7 7 7 7 7 7 7 7 7 7
11 11 11 11 11 11 11 11 10 10 10 10 9 9 9 9 9 8 8 8 8 7 7 7 7 7 7 7 7 7 7 7 7 6 7 7 7 7 7 7 6 6 6
Wind_Speed
8 6 6 7 6 5 6 5 5 4 4 3 3 2 1 1 1 1 3 4 5 6 5 3 2 3 3 2 2 2 3 2 2 3 3 4 3 2 1 1 2 2 2
5 5 6 6 6 6 6 5 5 4 4 3 3 3 2 1 1 1 2 4 4 5 5 4 2 2 2 2 2 2 2 1 1 2 2 2 4 3 2 1 1 1 2
10 8 7 7 7 6 7 6 6 5 4 3 3 3 3 2 2 1 1 1 3 4 4 4 3 2 2 2 2 2 3 2 0 1 3 3 2 2 3 2 1 1 1
9 9 9 8 8 8 7 7 6 5 4 4 4 5 3 2 2 2 1 1 2 2 3 3 3 2 2 2 2 2 2 3 1 0 0 2 4 2 1 3 2 1 0
10 10 11 10 8 8 8 7 6 6 5 5 5 5 3 2 1 1 2 1 1 1 2 3 2 2 2 3 2 2 2 2 3 2 1 1 1 2 2 1 2 2 2
10 10 9 7 7 7 6 6 7 6 5 5 5 6 5 4 3 2 2 1 1 1 2 2 2 2 2 3 2 2 3 3 2 2 2 3 2 2 2 2 2 2 2
9 9 9 8 7 8 7 7 7 6 6 6 6 6 6 6 5 4 4 3 2 2 3 3 3 3 3 3 2 2 3 3 3 3 3 3 3 3 3 3 2 1 2
9 10 10 10 8 8 9 8 8 7 7 6 6 6 6 5 4 4 4 4 3 4 4 4 4 3 3 3 2 2 2 2 3 3 3 2 2 3 3 4 3 1 1
9 10 9 9 9 8 9 9 9 7 7 7 7 6 6 5 5 5 4 4 3 3 3 4 4 4 3 3 3 2 2 2 2 3 3 2 2 2 2 3 4 4 2
6 7 8 9 8 8 7 8 8 8 7 7 7 6 6 6 5 4 4 4 4 3 3 3 4 3 3 3 3 2 2 2 2 1 1 1 1 1 2 2 2 3 4
6 6 5 6 6 5 5 6 7 7 7 7 7 6 5 5 5 5 5 5 4 3 3 3 3 3 3 3 3 3 3 3 2 1 2 2 2 1 1 2 2 2 3
5 5 4 4 3 3 4 4 5 6 7 7 7 6 6 5 5 5 5 5 4 4 4 3 2 3 3 3 3 3 2 3 3 3 2 2 2 2 2 2 3 2 2
4 3 3 3 3 3 3 4 4 5 5 6 6 6 5 6 6 6 5 5 4 4 3 3 3 3 3 4 4 4 3 3 4 4 3 4 3 3 2 3 3 3 2
4 4 3 3 3 3 3 3 3 4 4 4 5 5 5 6 6 5 5 5 5 4 4 4 4 4 3 3 4 4 3 3 3 3 4 4 4 5 4 3 4 3 3
3 4 4 4 3 2 2 3 2 3 4 4 4 5 5 4 4 4 4 4 5 5 5 4 4 3 3 3 3 3 3 3 3 3 3 4 5 5 5 3 3 4 3
2 3 3 3 3 4 4 3 3 3 4 4 4 4 3 3 3 4 4 4 4 4 4 5 5 4 3 3 4 4 3 3 3 3 3 3 4 5 6 6 5 5 5
2 2 3 4 4 4 4 4 4 3 3 4 5 4 4 4 4 4 3 3 4 4 4 5 4 4 4 4 3 4 3 3 3 3 3 3 3 3 3 5 5 5 6
2 2 2 2 2 2 2 2 2 2 3 4 5 4 4 4 3 3 4 4 3 3 4 4 4 4 5 5 4 4 3 2 3 4 4 4 4 4 4 3 2 3 5
2 2 2 2 2 1 2 2 2 2 3 4 5 5 4 4 3 4 4 4 3 3 4 4 4 4 5 5 4 4 3 2 3 4 4 4 4 4 4 3 3 3 4
1 1 1 1 1 1 1 2 1 1 3 4 5 4 4 5 5 5 4 3 3 4 3 3 3 4 4 4 4 4 3 2 3 3 3 4 4 4 4 4 4 5 5
2 2 2 2 0 0 2 2 2 3 4 3 2 2 3 4 5 4 3 2 2 2 2 3 2 2 3 3 3 3 3 3 3 3 3 4 4 4 5 5 5 6 5
1 2 2 1 0 1 2 1 2 3 2 1 1 2 2 3 2 2 2 2 2 2 2 1 1 2 2 2 3 3 3 3 3 3 4 4 4 4 5 4 4 4 3
1 1 2 1 1 0 1 1 3 1 0 1 1 1 1 1 1 2 3 1 1 2 2 2 2 2 2 2 2 2 2 2 2 3 4 4 4 3 3 4 4 3 2
1 2 2 2 1 1 1 1 1 1 1 1 1 1 1 1 0 1 1 2 2 2 2 2 2 2 2 2 1 2 2 2 2 3 3 3 3 3 3 2 2 2 3
1 2 2 1 1 1 1 2 1 1 1 1 1 1 1 1 0 0 0 1 2 3 3 3 3 3 3 4 4 2 2 2 3 1 1 1 1 1 1 1 1 1 1
1 1 1 0 1 1 1 2 1 0 1 1 1 1 1 1 1 0 2 3 2 3 2 1 2 3 3 4 3 2 2 2 1 1 1 2 2 3 3 3 2 2 2
Wind_Direction
202 181 171 163 151 144 144 143 139 146 138 130 131 126 135 148 80 74 101 114 114 116 118 115 108 106 110 116 114 107 85 64 73 71 37 15 24 38 37 73 96 105 137
189 181 169 162 161 160 156 150 147 146 148 158 163 158 156 155 134 67 75 104 114 121 124 126 130 125 117 108 115 118 119 102 90 108 89 27 360 356 4 21 87 100 118
188 184 176 173 167 166 167 164 159 155 157 151 137 109 75 52 53 57 87 96 126 130 131 134 131 135 143 154 160 155 145 162 267 128 138 137 207 303 338 351 17 66 110
187 180 177 176 174 177 172 164 163 163 165 157 147 146 146 163 203 197 182 142 128 134 143 146 144 155 165 174 182 159 160 156 188 277 177 166 159 156 304 332 336 337 197
185 183 183 181 176 172 167 167 162 163 164 160 158 158 156 179 189 162 152 168 181 165 161 163 162 175 187 192 185 169 174 170 172 182 176 138 105 128 152 236 308 329 294
186 183 184 173 173 171 166 166 163 171 171 163 163 165 167 167 159 161 178 208 235 228 225 193 182 190 198 200 198 193 188 188 182 186 178 169 166 176 160 194 238 257 284
179 178 177 176 177 176 175 175 171 177 179 172 176 178 178 174 180 184 192 201 214 236 239 218 207 205 201 197 191 190 197 196 194 199 201 191 190 171 162 164 199 237 279
177 180 184 181 181 184 183 181 179 182 183 184 189 185 181 182 192 194 193 203 212 225 225 219 214 209 203 199 195 203 211 198 205 210 198 191 199 182 173 169 161 166 294
180 180 182 184 186 189 190 187 184 186 190 191 189 185 188 190 194 199 199 208 221 229 222 219 216 217 206 195 183 202 211 189 207 215 208 192 198 191 194 180 168 163 194
181 184 186 187 190 192 191 188 188 194 195 192 193 192 197 201 200 194 198 206 217 223 219 220 218 218 212 201 180 190 207 179 194 193 177 183 190 187 190 183 179 172 174
173 180 186 191 189 185 185 190 195 196 196 196 197 194 198 200 197 200 207 209 213 215 216 217 217 212 210 204 187 199 200 195 201 190 182 209 187 174 199 181 166 167 160
171 173 173 167 163 168 182 198 205 202 202 199 199 199 200 197 199 205 212 207 207 211 209 199 200 209 208 205 194 207 205 203 208 213 196 212 198 207 218 196 188 188 180
152 148 142 147 162 170 177 190 202 205 212 204 199 202 202 198 204 208 209 207 206 207 199 185 191 205 206 205 209 204 204 213 219 217 206 214 195 216 225 215 203 198 186
151 151 160 166 168 168 176 193 216 206 198 193 193 204 209 205 210 214 211 209 203 197 198 198 198 202 204 202 210 204 204 212 226 228 220 217 205 212 213 216 212 192 174
155 171 180 183 177 173 182 191 210 210 186 180 190 208 213 213 211 215 214 214 206 203 200 197 201 202 199 201 198 203 205 209 224 239 239 233 222 217 207 207 202 186 179
189 194 189 181 184 192 196 197 207 211 185 180 194 206 209 212 212 215 212 211 214 214 203 201 203 209 221 212 199 195 207 214 217 231 241 245 236 237 225 222 204 186 187
195 198 198 201 203 202 197 202 210 208 186 188 199 207 210 217 221 219 210 215 220 212 209 211 204 213 226 221 212 202 201 209 223 227 231 247 247 229 229 237 232 226 219
172 196 213 222 216 206 202 198 191 193 191 197 206 209 205 216 227 218 217 222 226 221 216 218 214 220 236 230 223 212 201 209 229 231 228 229 240 226 208 216 230 245 241
178 198 209 206 200 205 205 180 188 199 200 208 215 215 205 206 213 220 228 227 221 232 231 219 211 215 238 238 229 210 204 220 246 253 242 230 235 232 205 201 222 251 265
154 155 157 96 117 218 160 151 200 206 223 224 227 224 212 209 215 223 227 235 224 231 235 230 218 215 231 245 235 206 194 219 247 268 269 246 239 239 212 205 211 235 255
153 133 102 94 162 153 131 160 215 231 236 228 222 223 219 217 216 220 221 222 228 233 237 231 239 236 243 255 244 208 199 212 233 256 271 266 253 248 237 221 217 230 232
115 117 113 105 274 123 128 167 243 257 251 208 212 234 232 225 217 203 214 209 200 213 233 223 264 277 270 258 249 224 209 209 216 243 258 265 266 254 246 237 236 235 221
128 118 121 101 31 73 144 190 265 271 158 148 230 258 255 234 201 189 194 197 194 201 221 211 234 271 286 286 280 237 214 222 237 251 261 265 270 271 258 254 253 240 209
108 109 109 104 337 323 296 246 262 192 136 168 223 251 225 250 330 193 186 179 199 213 224 221 232 254 270 265 264 267 261 256 262 275 290 293 286 266 259 268 260 234 212
97 127 137 153 263 307 318 300 262 148 162 186 214 237 217 205 177 352 273 220 223 218 217 221 217 218 242 247 236 223 233 243 240 247 294 316 312 298 277 278 271 253 242
72 83 85 94 301 319 314 313 312 149 177 193 211 215 207 202 179 165 345 343 333 317 300 261 237 250 255 260 260 248 252 261 243 146 237 262 261 262 262 257 262 245 238
Height
1525 1526 1528 1529 1531 1532 1533 1534 1535 1536 1537 1537 1537 1538 1538 1538 1538 1539 1539 1539 1538 1538 1538 1537 1537 1536 1536 1536 1536 1536 1537 1537 1537 1537 1537 1538 1538 1538 1539 1539 1538 1538 1538
1523 1525 1526 1528 1529 1530 1531 1533 1534 1535 1535 1536 1537 1537 1538 1538 1538 1538 1538 1538 1538 1538 1537 1537 1536 1536 1536 1536 1536 1536 1536 1536 1537 1537 1537 1538 1539 1538 1538 1538 1538 1538 1538
1519 1522 1524 1526 1527 1528 1529 1531 1532 1533 1534 1535 1536 1536 1537 1537 1537 1537 1537 1537 1537 1537 1536 1536 1536 1536 1536 1535 1535 1536 1535 1535 1536 1537 1537 1537 1537 1537 1538 1537 1538 1538 1538
1517 1519 1521 1523 1524 1526 1527 1529 1530 1531 1532 1533 1534 1535 1535 1535 1535 1536 1536 1536 1536 1536 1535 1535 1535 1535 1535 1534 1534 1534 1535 1535 1535 1536 1536 1537 1536 1536 1536 1537 1537 1537 1537
1514 1516 1518 1520 1522 1523 1525 1527 1528 1529 1530 1531 1532 1533 1534 1534 1534 1534 1534 1534 1534 1534 1534 1534 1534 1533 1533 1533 1533 1533 1533 1533 1534 1534 1535 1535 1535 1535 1535 1535 1535 1536 1536
1511 1513 1516 1518 1520 1522 1523 1524 1526 1527 1528 1529 1530 1531 1532 1532 1532 1532 1532 1532 1533 1533 1533 1532 1532 1532 1532 1531 1531 1532 1532 1532 1532 1532 1533 1533 1533 1533 1534 1533 1533 1533 1534
1508 1511 1514 1515 1517 1519 1520 1522 1523 1524 1526 1527 1528 1529 1530 1530 1530 1530 1530 1530 1530 1530 1530 1530 1530 1530 1530 1530 1530 1530 1530 1530 1530 1530 1531 1531 1531 1532 1532 1532 1531 1531 1532
1506 1509 1510 1512 1514 1516 1518 1519 1521 1522 1523 1525 1526 1527 1528 1528 1529 1529 1529 1529 1528 1528 1528 1528 1528 1528 1528 1528 1528 1528 1528 1528 1528 1528 1528 1529 1529 1530 1530 1530 1530 1529 1530
1504 1506 1508 1510 1512 1513 1515 1516 1518 1520 1521 1522 1524 1525 1526 1526 1526 1527 1527 1527 1526 1526 1526 1526 1526 1526 1525 1525 1525 1525 1525 1525 1525 1525 1526 1526 1526 1527 1527 1527 1528 1528 1527
1503 1505 1506 1508 1510 1511 1513 1514 1516 1517 1519 1520 1521 1522 1523 1524 1524 1524 1524 1524 1524 1524 1524 1523 1523 1523 1523 1523 1523 1523 1523 1523 1523 1523 1523 1523 1524 1524 1524 1524 1525 1525 1525
1501 1502 1504 1506 1507 1509 1511 1512 1514 1515 1516 1517 1518 1519 1520 1521 1521 1521 1522 1522 1522 1522 1521 1521 1520 1520 1520 1520 1520 1520 1520 1520 1520 1520 1521 1521 1521 1521 1521 1522 1522 1522 1522
1500 1501 1502 1503 1505 1507 1508 1510 1511 1512 1513 1514 1516 1516 1517 1518 1518 1518 1519 1519 1519 1519 1519 1518 1518 1517 1517 1517 1517 1517 1517 1517 1518 1518 1518 1518 1518 1518 1518 1518 1519 1519 1519
1499 1500 1501 1502 1503 1504 1505 1507 1508 1509 1510 1511 1512 1513 1514 1515 1515 1515 1516 1516 1516 1516 1516 1516 1515 1515 1515 1514 1514 1514 1514 1514 1514 1515 1515 1515 1515 1515 1515 1515 1516 1516 1516
1498 1499 1500 1500 1501 1502 1503 1504 1505 1506 1507 1508 1509 1510 1510 1511 1512 1512 1512 1513 1513 1513 1513 1513 1512 1512 1512 1511 1511 1511 1511 1511 1512 1512 1512 1512 1512 1512 1512 1512 1512 1513 1513
1497 1498 1498 1498 1499 1500 1501 1502 1502 1503 1504 1505 1505 1506 1507 1507 1508 1509 1509 1509 1510 1510 1510 1510 1509 1509 1509 1509 1509 1508 1508 1508 1508 1508 1509 1509 1509 1509 1509 1509 1509 1509 1510
1497 1496 1497 1497 1497 1498 1498 1499 1500 1500 1501 1502 1502 1503 1503 1504 1504 1505 1505 1506 1506 1506 1506 1506 1506 1506 1506 1506 1506 1505 1505 1505 1505 1505 1505 1505 1505 1505 1505 1506 1506 1506 1506
1495 1495 1495 1495 1495 1496 1496 1496 1497 1497 1498 1498 1499 1499 1500 1500 1500 1501 1501 1501 1502 1502 1502 1502 1502 1502 1502 1503 1503 1502 1502 1502 1502 1502 1502 1502 1502 1502 1502 1502 1502 1502 1502
1494 1493 1493 1493 1493 1494 1494 1494 1495 1495 1495 1495 1495 1496 1496 1496 1497 1497 1497 1497 1497 1498 1498 1498 1498 1498 1498 1499 1499 1499 1499 1498 1498 1498 1498 1498 1498 1499 1499 1498 1498 1498 1498
1492 1492 1491 1491 1491 1491 1491 1492 1492 1492 1491 1491 1492 1492 1492 1493 1493 1493 1492 1493 1493 1493 1493 1494 1494 1494 1494 1495 1495 1495 1495 1495 1494 1494 1494 1494 1494 1495 1495 1495 1494 1494 1494
1490 1490 1489 1489 1488 1488 1489 1489 1488 1488 1488 1488 1488 1489 1489 1489 1489 1488 1488 1488 1489 1489 1489 1489 1490 1490 1490 1490 1491 1491 1491 1491 1490 1490 1490 1490 1490 1491 1491 1490 1490 1490 1490
1488 1488 1487 1487 1486 1486 1486 1486 1486 1485 1485 1485 1485 1486 1486 1485 1485 1485 1484 1484 1484 1484 1485 1485 1485 1486 1486 1486 1487 1487 1487 1486 1486 1486 1486 1486 1486 1486 1486 1486 1486 1486 1486
1486 1486 1486 1485 1485 1484 1484 1484 1484 1483 1483 1483 1482 1482 1482 1482 1482 1481 1481 1480 1480 1480 1480 1481 1481 1481 1482 1482 1482 1482 1482 1482 1482 1482 1481 1481 1481 1481 1481 1481 1481 1482 1482
1485 1484 1484 1484 1483 1483 1483 1482 1482 1481 1480 1480 1479 1479 1479 1479 1478 1478 1477 1476 1476 1476 1476 1476 1476 1477 1477 1478 1478 1478 1478 1478 1478 1477 1477 1477 1477 1476 1476 1477 1477 1477 1477
1483 1483 1482 1482 1481 1481 1481 1481 1480 1479 1478 1477 1476 1476 1475 1475 1474 1474 1474 1473 1472 1472 1472 1472 1472 1473 1473 1474 1474 1474 1474 1473 1473 1473 1472 1472 1472 1472 1472 1472 1472 1472 1472
1482 1481 1481 1480 1480 1479 1479 1478 1477 1476 1475 1474 1474 1473 1472 1472 1471 1470 1470 1470 1470 1470 1469 1469 1469 1469 1469 1470 1470 1470 1469 1469 1469 1468 1468 1467 1467 1467 1467 1467 1467 1467 1467
1480 1479 1478 1478 1477 1476 1476 1475 1474 1473 1472 1471 1470 1469 1469 1468 1467 1467 1467 1467 1467 1467 1466 1466 1466 1466 1466 1466 1466 1466 1465 1465 1465 1464 1463 1463 1462 1462 1462 1462 1462 1462 1462